Location: Strada George Coșbuc
(47.6577°N, 23.5639°E)
Time: 05:14:47
(UTC+03:00)

ISS - Pass Details

Date: 14 October 2017
Orbit: 400 x 408 km, 51.6° (Epoch: 24 October)

Event Time Altitude Azimuth Distance (km) Brightness Sun altitude
Rises 20:15:47 0° 286° (WNW) 2,326 1.7 -17.0°
Reaches altitude 10° 20:18:17 10° 267° (W) 1,464 0.3 -17.4°
Maximum altitude 20:20:36 18° 222° (SW) 1,079 -1.3 -17.8°
Enters shadow 20:22:52 10° 178° (S) 1,452 -1.1 -18.2°
